TITAN 3C TRANSTAGE DEB, 43512

Orbit data source: Space-Track

TITAN 3C TRANSTAGE DEB, 43512 is space debris in GEO originally from a launch on Sun, 09 Feb 1969 UTC launched from the Air Force Eastern Test Range (AFETR). Debris objects in space refer to the collection of defunct objects orbiting the Earth. Examples of debris include non-operational satellites, rocket bodies, and fragments generated from explosions, collisions, or faulty payload assembly.

Not visible in the next 10 days
Identifier
43512, 1969-013Q
Orbit
GEO
Country
Flag of USUS
Related business
Manufacturer
Martin Marietta
Mission
Spacecraft
Bus & Motor
Unknown
Mass
Unknown
Launch date (UTC)
1969-02-09 (57 years ago)
Launch vehicle
Unknown
Launch site
Air Force Eastern Test Range (AFETR)
Object type
Payload
Rocket body
Debris
Shape & HBR
Unknown shape, 1.1 m
Radar Cross Section
RCS unknown

Expand to show TLE details & history
Last TLE update: 3 weeks ago

TLE from 3 weeks ago
0 TITAN 3C TRANSTAGE DEB
1 43512U 69013Q   25283.54396366 -.00000125  00000-0  00000-0 0  9995
2 43512   0.8303 168.7002 0086629 149.9544  40.7278  0.95015983 15028
Epoch: 2025-10-10T13:03Z
TLE epoch observation values (Epoch: 2025-10-10T13:03:18.460Z)
Latitude
-0.14776°
Longitude
144.78379°
Altitude
37,041.002 km
Speed
3.04 km/s
True Right ascension
23h 59m 59s
True Declination
0° 08' 51"
Sunlit
Object was in daylight at epoch
Visualization orbit readout
Latitude
Unknown
Longitude
Unknown
Altitude
Unknown
Speed
Unknown
Apparent Right ascension
Unknown
Apparent Declination
Unknown
Sunlit
N/A
Visualization observer readout
Local Sidereal Time
07:17:34
Azimuth
Unknown
Elevation
Unknown
Doppler factor
Unknown
Orbital elements
Apogee altitude
37,707.155 km
Perigee altitude
36,949.902 km
Semi-major axis
43,706.666 km
Eccentricity
0.00866
Inclination
0.8303°
RAAN
168.7002°
Arg. of periapsis
149.9544°
True anomaly
41.38084°
Mean anomaly
40.7278°
Eccentric anomaly
41.05378°
Mean motion
0.23753 °/min
Orbital period
1,515.59 mins
BSTAR
0
Loading maneuver chart data...
Computing Atmospheric mass density...

Documentation

Showing up to 5 results
|